Regional Weather Roundup
Issued by NWS

Current Version | Previous Version | Text Only | Print | Product List | Glossary On
Versions: 1 2 3 4 5 6 7 8 9 10 11 12 13 14 15 16 17 18 19 20 21 22 23 24 25 26 27 28 29 30 31 32 33 34 35 36 37 38 39 40 41 42 43 44 45 46 47 48 49 50
000
ASUS43 KDMX 172206
RWRIA

WEATHER ROUNDUP FOR IOWA
NATIONAL WEATHER SERVICE DES MOINES IA
500 PM CDT TUE OCT 17 2017

NOTE: "FAIR" INDICATES FEW OR NO CLOUDS BELOW 12,000 FEET WITH NO
SIGNIFICANT WEATHER AND/OR OBSTRUCTIONS TO VISIBILITY.

* - THESE STATIONS ARE NOT NWS STATIONS...THUS NOT UNDER NWS
QUALITY CONTROL.  THEY ALSO DO NOT REPORT WEATHER SUCH
AS PRECIPITATION OR FOG.

IAZ001>003-012>014-020>022-031>034-043>046-172300-
   NORTHWEST IOWA

CITY           SKY/WX    TMP DP  RH WIND       PRES   REMARKS
CARROLL *      SUNNY     75  48  38 SW13      30.00S
CHEROKEE *     SUNNY     71  46  41 SW7       29.97F
DENISON *      SUNNY     70  45  40 S7G15     30.01F
LE MARS *      SUNNY     77  37  24 SW7       29.96F
ORANGE CITY *  SUNNY     75  45  33 S8        29.97S
SHELDON *      SUNNY     77  34  20 SW6       29.95S
SIOUX CITY     SUNNY     75  46  35 SE6       29.96F
SPENCER        SUNNY     76  38  25 SW8       29.96F
STORM LAKE *   SUNNY     72  41  33 SW8       29.99S
$$

IAZ055>058-069>071-079>083-090>094-172300-
   SOUTHWEST IOWA

CITY           SKY/WX    TMP DP  RH WIND       PRES   REMARKS
ATLANTIC *     SUNNY     70  45  40 SW14      30.01F
AUDUBON *      SUNNY     70  45  40 S9        30.02F
CLARINDA *     SUNNY     73  45  35 S14       30.05S
COUNCIL BLFS * SUNNY     70  46  43 SW12      30.01F
CRESTON *      SUNNY     70  45  40 S16G24    30.04F
HARLAN  *      SUNNY     72  45  37 S10       30.04F
LAMONI         SUNNY     70  46  42 S13       30.05F
RED OAK *      SUNNY     72  45  37 S14       30.02F
SHENANDOAH *   SUNNY     73  45  35 S12       30.02F
$$

IAZ047>049-059>061-072>074-084-172300-
   CENTRAL IOWA

CITY           SKY/WX    TMP DP  RH WIND       PRES   REMARKS
AMES           SUNNY     70  46  42 S14       30.01F
ANKENY *       SUNNY     72  43  35 S9G18     30.03F
BOONE *        SUNNY     73  43  33 SW12      30.00F
CHARITON *     SUNNY     72  45  37 S15       30.05S
DES MOINES     SUNNY     72  43  35 S10       30.02F
GRINNELL*      SUNNY     71  42  34 S12G20    30.06F
KNOXVILLE *    SUNNY     72  43  35 S14       30.03F
MARSHALLTOWN   SUNNY     71  43  36 S13G23    30.02F
NEWTON *       SUNNY     72  43  35 S15       30.04F
PELLA *        SUNNY     72  43  34 S6        30.06F
PERRY *          N/A     74  38  28 SW10G17   30.01F
$$

IAZ004>006-015-016-023>025-035-036-172300-
   NORTH CENTRAL IOWA

CITY           SKY/WX    TMP DP  RH WIND       PRES   REMARKS
ALGONA *       SUNNY     73  43  33 SW10      29.98S
CLARION *      SUNNY     73  45  35 SW15      29.99F
ESTHERVILLE    SUNNY     74  37  26 SW6       29.95F
FORT DODGE *   SUNNY     72  46  39 SW13      30.00F
MASON CITY     SUNNY     70  43  37 SW13      30.00F
FOREST CITY *    N/A     70  43  37 S9        29.99S
WEBSTER CITY * SUNNY     73  43  33 SW13G18   29.98F
IOWA FALLS *     N/A     73  43  33 SW13      30.02S
$$

IAZ007>011-017>019-026>030-037>042-050>054-066-172300-
   NORTHEAST IOWA

CITY           SKY/WX    TMP DP  RH WIND       PRES   REMARKS
CEDAR RAPIDS   SUNNY     71  43  36 S12       30.06S
CHARLES CITY * SUNNY     72  41  33 S15       30.00F
CLINTON *      SUNNY     69  44  40 SW14      30.09F
DECORAH *      SUNNY     70  45  40 SW6G16    30.00F
DUBUQUE        SUNNY     68  44  42 SW12      30.06S
MONTICELLO *   SUNNY     72  43  35 S15       30.05F
OELWEIN *      SUNNY     72  43  35 S18G24    30.03S
WATERLOO       SUNNY     71  41  33 SW16      30.01F
$$

IAZ064-065-067-068-078-172300-
   EAST CENTRAL IOWA

CITY           SKY/WX    TMP DP  RH WIND       PRES   REMARKS
DAVENPORT      SUNNY     69  42  37 S14       30.11F
IOWA CITY      SUNNY     72  43  35 SW14      30.09S
MUSCATINE *    SUNNY     72  39  30 S13       30.09S
QUAD CITIES    SUNNY     70  40  33 SW10      30.09F
$$

IAZ062-063-075>077-085>089-095>099-172300-
   SOUTHEAST IOWA

CITY           SKY/WX    TMP DP  RH WIND       PRES   REMARKS
BURLINGTON     SUNNY     70  43  37 SW10      30.10F
FAIRFIELD *    SUNNY     70  41  35 SW10G17   30.08F
FORT MADISON * SUNNY     72  43  35 S9        30.11F
KEOKUK *       SUNNY     70  41  35 S10G20    30.10F
OSKALOOSA *      N/A     71  43  36 SW15      30.07S
OTTUMWA        SUNNY     70  43  37 SW15      30.07F
WASHINGTON *   SUNNY     72  43  35 S12       30.09F
$$

ABBREVIATIONS USED IN REMARKS
   TC - TEMPERATURES IN CELSIUS
  WCI - WIND CHILL INDEX
   HX - HEAT INDEX
  VSB - VISIBILITY
$$




USA.gov is the U.S. government's official web portal to all federal, state and local government web resources and services.